When you browse on this site, cookies collect data to enhance your experience and personalize the content and advertising you see.
Visit our Privacy Policy to learn more. By continuing to use the site, you agree to this use of cookies and data.
  • In Switzerland
  • List of Countries
  • For 7 days
  • Water Temperature
  • Weather Map
  • Weather Widgets
  • user-avatar
    Login

    Hourly Weather Golyn

    Today, 25 January, Saturday

    Time Temperature Precipitation Wind Pressure Humidity
    00:00 0°C° 0.2 mm 5 mps 745 mmHg 93%
    01:00 -1°C° 0.2 mm 6 mps 745 mmHg 92%
    02:00 -1°C° 0.2 mm 6 mps 745 mmHg 91%
    03:00 -1°C° 0 mm 6 mps 745 mmHg 91%
    04:00 -1°C° 0 mm 6 mps 744 mmHg 90%
    05:00 +1°C° 0 mm 6 mps 744 mmHg 90%
    06:00 +1°C° 0 mm 6 mps 744 mmHg 89%
    07:00 +1°C° 0 mm 6 mps 744 mmHg 89%
    08:00 +1°C° 0 mm 6 mps 745 mmHg 88%
    09:00 +1°C° 0.1 mm 6 mps 745 mmHg 87%
    10:00 +1°C° 0.1 mm 6 mps 745 mmHg 86%
    11:00 +1°C° 0.1 mm 6 mps 745 mmHg 84%
    12:00 +2°C° 0 mm 6 mps 745 mmHg 82%
    13:00 +2°C° 0 mm 6 mps 746 mmHg 79%
    14:00 +2°C° 0 mm 6 mps 746 mmHg 76%
    15:00 +2°C° 0 mm 5 mps 746 mmHg 77%
    16:00 +1°C° 0 mm 5 mps 746 mmHg 78%
    17:00 +1°C° 0 mm 4 mps 746 mmHg 80%
    18:00 0°C° 0 mm 4 mps 747 mmHg 81%
    19:00 0°C° 0 mm 4 mps 747 mmHg 83%
    20:00 0°C° 0 mm 3 mps 747 mmHg 85%
    21:00 0°C° 0 mm 3 mps 748 mmHg 86%
    22:00 0°C° 0 mm 3 mps 748 mmHg 88%
    23:00 -1°C° 0 mm 3 mps 749 mmHg 89%

    Tomorrow, 26 January, Sunday

    Time Temperature Precipitation Wind Pressure Humidity
    00:00 -1°C° 0 mm 3 mps 749 mmHg 90%
    01:00 -1°C° 0 mm 3 mps 749 mmHg 92%
    02:00 -1°C° 0 mm 2 mps 750 mmHg 93%
    03:00 -1°C° 0 mm 2 mps 749 mmHg 94%
    04:00 -1°C° 0 mm 2 mps 749 mmHg 94%
    05:00 -1°C° 0 mm 2 mps 749 mmHg 95%
    06:00 -1°C° 0 mm 2 mps 750 mmHg 95%
    07:00 0°C° 0 mm 3 mps 750 mmHg 95%
    08:00 0°C° 0 mm 3 mps 750 mmHg 95%
    09:00 0°C° 0 mm 3 mps 750 mmHg 91%
    10:00 0°C° 0 mm 4 mps 750 mmHg 87%
    11:00 0°C° 0 mm 4 mps 750 mmHg 84%
    12:00 +1°C° 0 mm 4 mps 750 mmHg 82%
    13:00 +1°C° 0 mm 4 mps 750 mmHg 81%
    14:00 +1°C° 0 mm 4 mps 750 mmHg 79%
    15:00 +1°C° 0 mm 4 mps 750 mmHg 81%
    16:00 +2°C° 0 mm 3 mps 750 mmHg 84%
    17:00 +1°C° 0 mm 3 mps 750 mmHg 86%
    18:00 +1°C° 0 mm 3 mps 750 mmHg 88%
    19:00 +1°C° 0 mm 3 mps 750 mmHg 90%
    20:00 +1°C° 0 mm 3 mps 750 mmHg 92%
    21:00 +1°C° 0 mm 3 mps 750 mmHg 92%
    22:00 +1°C° 0 mm 3 mps 750 mmHg 92%
    23:00 +2°C° 0 mm 2 mps 750 mmHg 92%

    Day after tomorrow, 27 January, Monday

    Time Temperature Precipitation Wind Pressure Humidity
    00:00 +2°C° 0 mm 2 mps 749 mmHg 92%
    01:00 +1°C° 0 mm 3 mps 749 mmHg 91%
    02:00 +1°C° 0 mm 3 mps 749 mmHg 90%
    03:00 +1°C° 0 mm 3 mps 749 mmHg 90%
    04:00 +2°C° 0 mm 2 mps 748 mmHg 90%
    05:00 +2°C° 0 mm 2 mps 748 mmHg 89%
    06:00 +2°C° 0 mm 2 mps 748 mmHg 89%
    07:00 +1°C° 0 mm 2 mps 748 mmHg 88%
    08:00 +1°C° 0 mm 2 mps 748 mmHg 88%
    09:00 +1°C° 0 mm 2 mps 747 mmHg 83%
    10:00 +2°C° 0 mm 2 mps 747 mmHg 79%
    11:00 +2°C° 0 mm 2 mps 747 mmHg 74%
    12:00 +2°C° 0 mm 2 mps 747 mmHg 73%
    13:00 +3°C° 0 mm 2 mps 747 mmHg 72%
    14:00 +3°C° 0 mm 2 mps 746 mmHg 70%
    15:00 +2°C° 0 mm 2 mps 746 mmHg 78%
    16:00 +1°C° 0 mm 2 mps 746 mmHg 87%
    17:00 +1°C° 0 mm 2 mps 745 mmHg 95%
    18:00 +1°C° 0.3 mm 2 mps 745 mmHg 95%
    19:00 +1°C° 0.3 mm 2 mps 745 mmHg 96%
    20:00 +1°C° 0.3 mm 2 mps 745 mmHg 96%
    21:00 +1°C° 0.2 mm 2 mps 745 mmHg 94%
    22:00 +1°C° 0.2 mm 2 mps 745 mmHg 92%
    23:00 +1°C° 0.2 mm 2 mps 745 mmHg 91%

    28 January, Tuesday

    Time Temperature Precipitation Wind Pressure Humidity
    00:00 +1°C° 0 mm 2 mps 744 mmHg 90%
    01:00 +1°C° 0 mm 2 mps 744 mmHg 90%
    02:00 -1°C° 0 mm 2 mps 743 mmHg 90%
    03:00 +1°C° 0.1 mm 2 mps 743 mmHg 91%
    04:00 0°C° 0.1 mm 3 mps 743 mmHg 93%
    05:00 +1°C° 0.1 mm 3 mps 743 mmHg 94%
    06:00 +1°C° 0.1 mm 3 mps 742 mmHg 95%
    07:00 +1°C° 0.1 mm 3 mps 742 mmHg 96%
    08:00 +1°C° 0.1 mm 3 mps 742 mmHg 96%
    09:00 +2°C° 0 mm 3 mps 742 mmHg 95%
    10:00 +2°C° 0 mm 3 mps 742 mmHg 93%
    11:00 +2°C° 0 mm 3 mps 742 mmHg 91%
    12:00 +3°C° 0 mm 3 mps 741 mmHg 88%
    13:00 +3°C° 0 mm 4 mps 741 mmHg 86%
    14:00 +3°C° 0 mm 4 mps 740 mmHg 83%
    15:00 +3°C° 0 mm 4 mps 740 mmHg 84%
    16:00 +2°C° 0 mm 3 mps 740 mmHg 86%
    17:00 +2°C° 0 mm 3 mps 739 mmHg 87%
    18:00 +2°C° 0 mm 3 mps 739 mmHg 87%
    19:00 +1°C° 0 mm 4 mps 739 mmHg 87%
    20:00 0°C° 0 mm 4 mps 739 mmHg 87%
    21:00 0°C° 0 mm 4 mps 739 mmHg 88%
    22:00 +1°C° 0 mm 3 mps 738 mmHg 89%
    23:00 +1°C° 0 mm 3 mps 738 mmHg 90%

    29 January, Wednesday

    Time Temperature Precipitation Wind Pressure Humidity
    00:00 0°C° 0 mm 4 mps 737 mmHg 90%
    01:00 0°C° 0 mm 4 mps 737 mmHg 90%
    02:00 0°C° 0 mm 4 mps 736 mmHg 90%
    03:00 0°C° 0 mm 4 mps 736 mmHg 90%
    04:00 0°C° 0 mm 4 mps 735 mmHg 91%
    05:00 0°C° 0 mm 5 mps 734 mmHg 91%
    06:00 0°C° 0.1 mm 5 mps 734 mmHg 92%
    07:00 0°C° 0.1 mm 5 mps 733 mmHg 94%
    08:00 -1°C° 0.1 mm 5 mps 733 mmHg 96%
    09:00 0°C° 0.5 mm 4 mps 733 mmHg 96%
    10:00 0°C° 0.5 mm 4 mps 733 mmHg 96%
    11:00 0°C° 0.5 mm 4 mps 732 mmHg 96%
    12:00 +1°C° 0.4 mm 3 mps 732 mmHg 97%
    13:00 +1°C° 0.4 mm 3 mps 732 mmHg 97%
    14:00 +2°C° 0.4 mm 2 mps 732 mmHg 97%
    15:00 +2°C° 0.5 mm 2 mps 732 mmHg 97%
    16:00 +1°C° 0.5 mm 3 mps 732 mmHg 97%
    17:00 +1°C° 0.5 mm 3 mps 733 mmHg 97%
    18:00 0°C° 0.4 mm 4 mps 733 mmHg 97%
    19:00 0°C° 0.4 mm 5 mps 733 mmHg 96%
    20:00 -2°C° 0.4 mm 6 mps 733 mmHg 96%
    21:00 -2°C° 0.2 mm 6 mps 734 mmHg 94%
    22:00 -2°C° 0.2 mm 6 mps 734 mmHg 92%
    23:00 -1°C° 0.2 mm 5 mps 734 mmHg 90%

    30 January, Thursday

    Time Temperature Precipitation Wind Pressure Humidity
    00:00 -1°C° 0 mm 5 mps 734 mmHg 89%
    01:00 -2°C° 0 mm 5 mps 735 mmHg 87%
    02:00 -2°C° 0 mm 5 mps 735 mmHg 86%
    03:00 -2°C° 0 mm 5 mps 735 mmHg 85%
    04:00 -2°C° 0 mm 5 mps 735 mmHg 84%
    05:00 -2°C° 0 mm 5 mps 736 mmHg 83%
    06:00 -2°C° 0 mm 5 mps 736 mmHg 82%
    07:00 -2°C° 0 mm 5 mps 736 mmHg 81%
    08:00 -2°C° 0 mm 4 mps 737 mmHg 80%
    09:00 -2°C° 0 mm 5 mps 737 mmHg 81%
    10:00 -1°C° 0 mm 5 mps 737 mmHg 82%
    11:00 -2°C° 0 mm 6 mps 738 mmHg 84%
    12:00 -2°C° 0 mm 6 mps 738 mmHg 83%
    13:00 -1°C° 0 mm 5 mps 738 mmHg 82%
    14:00 0°C° 0 mm 5 mps 738 mmHg 80%
    15:00 0°C° 0 mm 5 mps 738 mmHg 85%
    16:00 -1°C° 0 mm 5 mps 738 mmHg 90%
    17:00 -1°C° 0 mm 5 mps 739 mmHg 95%
    18:00 -1°C° 0.2 mm 5 mps 739 mmHg 95%
    19:00 -1°C° 0.2 mm 5 mps 739 mmHg 95%
    20:00 0°C° 0.2 mm 5 mps 739 mmHg 94%
    21:00 -1°C° 0.2 mm 5 mps 739 mmHg 95%
    22:00 -1°C° 0.2 mm 4 mps 739 mmHg 96%
    23:00 -1°C° 0.2 mm 4 mps 739 mmHg 96%
    Show more